Вернуться в каталог

STARLINK-30377

АктивенСвязьVLEO
NORAD 57825·PAYLOAD·🇺🇸 United States

Запущен Sep 9, 2023 с Cape Canaveral Space Force Station

Loading…

Ближайшие Пролёты (ближайшие 24 часа)

TLE

СвежийSource: CelesTrak SupGP

Эпоха: Sep 14, 2026, 22:00 UTC

1 57825C 23138T   26257.91715278  .00035033  00000+0  12691-2 0  2577
2 57825  42.9994 245.2811 0001281 255.6385   9.9537 15.27557226    11

Отслеживайте STARLINK-30377 в реальном времени с AllMySat

Download on the App Store